Вернуться в каталог

STARLINK-33738

АктивенСвязьVLEO
NORAD 63889·PAYLOAD·🇺🇸 United States

Запущен May 10, 2025 с Vandenberg Space Force Base

Loading…

Ближайшие Пролёты (ближайшие 24 часа)

TLE

СвежийSource: CelesTrak SupGP

Эпоха: Sep 14, 2026, 22:50 UTC

1 63889C 25094AB  26257.95187500  .00010759  00000+0  37431-3 0  2570
2 63889  69.9988 115.7605 0003324 271.5366 310.3356 15.29568788    13

Отслеживайте STARLINK-33738 в реальном времени с AllMySat

Download on the App Store